This is the latest recevied weather packets stored in our database for station/object KA1AL. If no packets are shown the sender has not sent any weather packets the latest 10 day(s).
| Time | Temp. | Humidity | Pressure | Rain* | Wind** | Luminosity | Snow |
|---|---|---|---|---|---|---|---|
| 1777396045 | 15° C | 55% | 1021.7 hPa | 0 mm | - | 649 W/m² | - |
| 1777395745 | 15° C | 53% | 1021.9 hPa | 0 mm | - | 659 W/m² | - |
| 1777395441 | 15° C | 56% | 1021.8 hPa | 0 mm | - | 656 W/m² | - |
| 1777395139 | 15° C | 51% | 1021.7 hPa | 0 mm | - | 660 W/m² | - |
| 1777394835 | 15° C | 55% | 1021.8 hPa | 0 mm | - | 662 W/m² | - |
| 1777394531 | 15.56° C | 56% | 1022 hPa | 0 mm | - | 664 W/m² | - |
| 1777394228 | 15.56° C | 57% | 1022 hPa | 0 mm | - | 662 W/m² | - |
| 1777393924 | 15° C | 57% | 1022 hPa | 0 mm | - | 658 W/m² | - |
| 1777393623 | 15° C | 57% | 1022.1 hPa | 0 mm | - | 652 W/m² | - |
| 1777393319 | 14.44° C | 56% | 1022.1 hPa | 0 mm | - | 654 W/m² | - |
| 1777393016 | 13.89° C | 59% | 1022 hPa | 0 mm | - | 653 W/m² | - |
| 1777392716 | 14.44° C | 57% | 1022.2 hPa | 0 mm | - | 660 W/m² | - |
| 1777392408 | 14.44° C | 58% | 1022.1 hPa | 0 mm | - | 662 W/m² | - |
| 1777392103 | 14.44° C | 56% | 1022.2 hPa | 0 mm | - | 668 W/m² | - |
| 1777391798 | 13.89° C | 57% | 1022.5 hPa | 0 mm | - | 668 W/m² | - |
| 1777391495 | 14.44° C | 57% | 1022.5 hPa | 0 mm | - | 675 W/m² | - |
| 1777391191 | 13.33° C | 58% | 1022.6 hPa | 0 mm | - | 676 W/m² | - |
| 1777390887 | 13.89° C | 55% | 1022.6 hPa | 0 mm | - | 682 W/m² | - |
| 1777390584 | 13.33° C | 57% | 1022.5 hPa | 0 mm | - | 690 W/m² | - |
| 1777390280 | 13.33° C | 59% | 1022.9 hPa | 0 mm | - | 700 W/m² | - |
| 1777389976 | 13.33° C | 60% | 1022.8 hPa | 0 mm | - | 707 W/m² | - |
| 1777389673 | 12.22° C | 58% | 1022.8 hPa | 0 mm | - | 707 W/m² | - |
| 1777389370 | 12.78° C | 57% | 1022.7 hPa | 0 mm | - | 719 W/m² | - |
| 1777389068 | 12.78° C | 58% | 1022.9 hPa | 0 mm | - | 716 W/m² | - |
| 1777388765 | 12.22° C | 60% | 1022.8 hPa | 0 mm | - | 717 W/m² | - |
* Rain latest hour (hover to see other rain measurements)
** Current wind speed in m/s (hover to see current wind gust speed)